www.pogodaiklimat.ru

Погода и климат >> Архив погоды >> Индонезия >> Амахаи


ПОГОДА в Амахаи

  • Прогноз погоды в Амахаи
  • Монитор погоды в Амахаи

АРХИВ ПОГОДЫ в Амахаи

Время (UTC), дата Ветер
(напр.,м/с)
 
Видим.   Явления Облачность Т
(С)
Тd
(С)
f
(%)
Тe
(С)
Тes
(С)
Комфортность P
(гПа)
Po
(гПа)
Тmin
(С)
Tmax
(С)
R
(мм)
R24
(мм)
S
(см)
12 13.05 В 3 10 км 9/6 540 м
[Cb cap Ac As Ci sp]
+27.8 +24.6 83 +39 +39 очень
душно
1012.2 1011.2 +30.8
15 13.05 штиль 0 8000 м в посл. час дождь 9/6 500 м
[Cb cap Ac As Ci sp]
+25.6 +24.1 91 +35 +35 очень
душно
1012.2 1011.2 6
18 13.05 штиль 0 10 км {дождь} 8/5 540 м
[Cu Sc Ac As Ci sp]
+24.8 +24.1 96 +34 +34 очень
душно
1010.9 1009.9 6
21 13.05 штиль 0 10 км 8/5 540 м
[Cu Sc Ac trans Ci sp]
+24.2 +23.5 96 +33 +33 очень
душно
1011.2 1010.2
00 14.05 штиль 0 10 км {дождь} 5/5 540 м
[Cu Sc Ac trans Ci sp]
+28.4 +24.5 79 +40 +45 очень
душно
1012.3 1011.3 +23.4 6
03 14.05 ЮЗ 2 10 км 5/5 540 м
[Cu Sc Ac trans Ci sp]
+29.8 +25.2 76 +43 +53 опасность
перегрева
1011.0 1010.1
06 14.05 ЮВ 3 10 км 8/6 540 м
[Cu Sc Ac trans Ci sp]
+29.8 +24.9 75 +43 +46 опасность
перегрева
1009.1 1008.1
09 14.05 ЮВ 2 10 км 9/6 540 м
[Cu Sc Ac As Ci sp]
+29.0 +25.0 79 +42 +42 опасность
перегрева
1009.4 1008.4
12 14.05 штиль 0 11 км 8/6 540 м
[Cu Sc Ac trans Ci sp]
+28.0 +25.4 86 +41 +41 опасность
перегрева
1011.9 1010.9 +30.6
15 14.05 штиль 0 11 км {дождь} 6/5 540 м
[Cu Sc Ac trans Ci sp]
+25.6 +24.8 95 +36 +36 очень
душно
1011.3 1010.3 0.0
18 14.05 штиль 0 11 км 5/5 540 м
[Cu Sc Ac trans Ci sp]
+25.2 +24.5 96 +35 +35 очень
душно
1010.0 1009.0
21 14.05 Ю 2 11 км 6/6 540 м
[Cu Sc Ac trans Ci sp]
+25.2 +24.2 94 +35 +35 очень
душно
1010.8 1009.8
00 15.05 штиль 0 9000 м в посл. час дождь 9/6 540 м
[Cu Sc Ac As Ci sp]
+27.1 +25.3 90 +39 +42 очень
душно
1013.0 1012.0 +24.9 0.8
03 15.05 С 3 11 км {дождь} 8/6 540 м
[Cu Sc Ac trans Ci sp]
+29.5 +25.2 78 +43 +48 опасность
перегрева
1011.6 1010.6 0.9
06 15.05 Ю 2 10 км {дождь} 9/6 540 м
[Cu Sc Ac trans Ci sp]
+29.7 +25.8 80 +44 +47 опасность
перегрева
1009.6 1008.7 0.9
09 15.05 штиль 0 10 км в посл. час дождь 9/6 540 м
[Cu Sc Ac trans Ci sp]
+27.8 +25.7 88 +41 +41 опасность
перегрева
1010.5 1009.5 10
12 15.05 штиль 0 10 км {дождь} 8/6 540 м
[Cu Sc Ac trans Ci sp]
+26.0 +25.3 96 +38 +38 очень
душно
1012.3 1011.3 +30.2 10
15 15.05 штиль 0 8000 м слаб. дождь 9/6 500 м
[Cb cap Ac As Ci sp]
+25.9 +25.2 96 +37 +37 очень
душно
1011.8 1010.8 0.9
18 15.05 штиль 0 10 км в посл. час гроза {дождь} 10/6 540 м
[Cu Sc Ac As]
+25.4 +24.7 96 +36 +36 очень
душно
1010.1 1009.1 8
21 15.05 штиль 0 10 км 6/4 570 м
[Cu med, cong Ac trans Ci sp]
+24.6 +23.9 96 +34 +34 очень
душно
1010.3 1009.3
00 16.05 С 3 11 км {дождь} 6/5 570 м
[Cu Sc Ac As Ci sp]
+28.0 +24.8 83 +40 +43 очень
душно
1011.8 1010.8 +24.2 20
03 16.05 Ю 2 10 км в посл. час дождь 9/6 540 м
[Cb cap Ac As Ci sp]
+28.2 +24.7 81 +40 +45 очень
душно
1010.9 1009.9 0.0
06 16.05 Ю 4 11 км {дождь} 9/6 540 м
[Cb cap Ac As Ci sp]
+29.3 +25.0 78 +42 +44 опасность
перегрева
1008.2 1007.2 0.0
09 16.05 ЮВ 2 9000 м осадки на расстоянии 9/6 500 м
[Cb cap Ac As Ci sp]
+28.1 +25.5 86 +41 +41 опасность
перегрева
1009.4 1008.4
12 16.05 штиль 0 8000 м гроза, ливневой дождь 10/8 480 м
[Cb cap As op]
+25.6 +24.8 95 +36 +36 очень
душно
1010.9 1010.0 +29.7 23
15 16.05 З 4 9000 м гроза без осадков 10/6 480 м
[Cb cap Ac As]
+26.1 +25.2 95 +38 +38 очень
душно
1010.5 1009.5 0.6
18 16.05 штиль 0 8000 м гроза, ливневой дождь 10/6 480 м
[Cb cap Ac As]
+25.8 +25.3 97 +37 +37 очень
душно
1009.5 1008.5 2
21 16.05 штиль 0 10 км {дождь} 9/6 500 м
[Cu Sc Ac As Ci sp]
+25.3 +24.8 97 +36 +36 очень
душно
1009.9 1009.0 0.0
00 17.05 СЗ 1 9000 м осадки на расстоянии 9/6 500 м
[Cb cap Ac As Ci sp]
+27.7 +25.1 86 +40 +42 очень
душно
1011.4 1010.4 +25.0 25
03 17.05 Ю 2 9000 м слаб. дождь 9/6 500 м
[Cb cap Ac As]
+27.6 +25.5 88 +40 +44 очень
душно
1010.5 1009.5 2
06 17.05 З 2 9000 м слаб. дождь 9/6 500 м
[Cb cap Ac As]
+27.0 +23.7 82 +37 +39 очень
душно
1008.5 1007.5 0.0
09 17.05 штиль 0 7000 м гроза, ливневой дождь 10/8 480 м
[Cb cap As op]
+24.6 +23.9 96 +34 +34 очень
душно
1010.0 1009.0 63
12 17.05 штиль 0 9000 м осадки на расстоянии {гроза} 9/6 500 м
[Cb cap Ac As]
+24.4 +24.0 98 +34 +34 очень
душно
1011.9 1010.9 +28.3 5
15 17.05 штиль 0 9000 м в посл. час дождь 9/6 540 м
[Cu Sc Ac As]
+24.5 +23.8 96 +33 +33 очень
душно
1011.8 1010.8 0.7
18 17.05 штиль 0 10 км {дождь} 9/6 540 м
[Cu Sc Ac As Ci sp]
+24.1 +23.4 96 +32 +32 очень
душно
1010.5 1009.5 0.7
21 17.05 штиль 0 10 км 9/6 540 м
[Cu Sc Ac As Ci sp]
+23.7 +23.0 96 +31 +31 очень
душно
1011.1 1010.1
00 18.05 штиль 0 13 км {дождь} 5/4 570 м
[Cu med, cong Ac trans Ci sp]
+28.6 +23.9 76 +40 +45 очень
душно
1012.7 1011.7 +23.4 70
03 18.05 З 2 12 км 6/5 540 м
[Cu Sc Ac trans Ci sp]
+29.6 +24.4 74 +42 +51 опасность
перегрева
1011.6 1010.6
06 18.05 Ю 1 12 км 4/4 600 м
[Cu med, cong Ci sp]
+30.0 +24.2 71 +42 +50 опасность
перегрева
1008.9 1007.9
09 18.05 штиль 0 13 км 4/4 600 м
[Cu med, cong Ci sp]
+29.0 +25.4 81 +43 +43 опасность
перегрева
1009.5 1008.5
15 18.05 штиль 0 11 км 9/5 570 м
[Cu Sc Ac As Ci sp]
+25.0 +24.3 96 +35 +35 очень
душно
1012.2 1011.2
18 18.05 штиль 0 13 км 4/4 600 м
[Cu med, cong Ac trans Ci sp]
+24.8 +24.1 96 +34 +34 очень
душно
1011.6 1010.6
21 18.05 штиль 0 13 км 4/3 600 м
[Cu med, cong Ci sp]
+24.2 +23.5 96 +33 +33 очень
душно
1011.1 1010.1
00 19.05 С 3 12 км 6/4 570 м
[Cu med, cong Ci sp]
+28.7 +24.4 78 +41 +44 опасность
перегрева
1012.2 1011.2 +23.9
03 19.05 Ю 3 12 км 3/1 570 м
[Cu med, cong Ci sp]
+29.8 +24.4 73 +42 +56 опасность
перегрева
1011.9 1010.9
06 19.05 ЮВ 1 13 км 5/3 570 м
[Cu med, cong Ci sp]
+30.4 +25.3 74 +44 +53 опасность
перегрева
1010.0 1009.0
09 19.05 штиль 0 11 км 8/5 540 м
[Cu Sc Ac trans Ci sp]
+29.0 +25.3 80 +42 +42 опасность
перегрева
1010.4 1009.4
12 19.05 штиль 0 11 км 8/5 570 м
[Cu Sc Ac trans Ci sp]
+26.0 +25.1 95 +37 +37 очень
душно
1011.9 1010.9 +30.8
15 19.05 штиль 0 12 км 8/3 600 м
[Cu med, cong Ac trans Ci sp]
+25.8 +24.3 91 +36 +36 очень
душно
1012.0 1011.1
18 19.05 штиль 0 12 км 9/3 600 м
[Cu med, cong Ac trans Ci sp]
+25.6 +24.1 91 +35 +35 очень
душно
1010.4 1009.4
21 19.05 штиль 0 13 км 8/3 600 м
[Cu med, cong Ac trans Ci sp]
+24.6 +23.0 91 +33 +33 очень
душно
1010.8 1009.8
00 20.05 штиль 0 12 км 8/5 540 м
[Cu Sc Ac trans Ci sp]
+28.0 +24.5 81 +39 +43 очень
душно
1011.9 1010.9 +24.4
03 20.05 ЮЗ 2 12 км 8/5 540 м
[Cu Sc Ac trans Ci sp]
+29.8 +24.9 75 +43 +50 опасность
перегрева
1011.3 1010.3
06 20.05 Ю 2 12 км 6/5 570 м
[Cu Sc Ac trans Ci sp]
+30.2 +25.8 77 +45 +50 опасность
перегрева
1009.2 1008.2
09 20.05 штиль 0 11 км 9/6 570 м
[Cu Sc Ac As Ci sp]
+28.6 +25.4 83 +42 +42 опасность
перегрева
1009.7 1008.7

 

Местоположение метеостанции Амахаи (Индонезия): широта -3.35 долгота 128.88 высота над уровнем моря 10 м.

В архиве по умолчанию представлена погода в Амахаи за последнюю неделю. Архивные данные за месяц целиком и за предыдущие месяцы, начиная с января 2011 года, Вы можете получить, выбрав интересующий диапазон дат из раскрывающегося списка и нажав кнопку "Ввод!".


*Определитесь, кто Вы:
робот инопланетянин человек

Внимание! Время в таблицах - всемирное. Для получения местного времени необходимо прибавить поправку, которая равна 9 ч.

Смотрите также архив погоды в соседних городах и на ближайших метеорологических станциях:

Погода в Амбоне (Индонезия) (97 км)
Погода в Неира (Индонезия) (173 км)
Погода в Намлеа (Индонезия) (200 км)
Погода в Гесере (Индонезия) (222 км)
Погода в Лабухе (Индонезия) (339 км)
Погода на Санане (Индонезия) (350 км)
Погода в Аэропорту Соронг-Джефман (Индонезия) (366 км)
Погода в Факфаке (Индонезия) (378 км)
Погода в Тауне (Индонезия) (379 км)
Погода в Тернате (Индонезия) (488 км)

Пояснения к столбцам:

Ветер - указаны скорость ветра в м/с - средняя за 10 мин, порывы в срок и между сроками (в фигурных скобках) и направление, откуда дует ветер: С - северный, СВ - северо-восточный, В - восточный, ЮВ - юго-восточный, Ю - южный, ЮЗ - юго-западный, З - западный, СЗ - северо-западный.
Видимость - горизонтальная дальность видимости в метрах или километрах. При видимости от 1 до 10 км при отсутствии осадков обычно наблюдается дымка, при ухудшении видимости до 1 км и менее - туман. В сухую погоду видимость может ухудшаться дымом, пылью или мглою.
Явления - указаны атмосферные явления, наблюдавшиеся в срок или в последний час перед сроком; фигурными скобками обозначены явления, наблюдавшиеся между сроками (за 1-3 часа до срока); квадратными скобками обозначены град или гололедные отложения с указанием их диаметра в мм.
Облачность - указаны через наклонную черту общая и нижняя облачность в баллах и высота нижней границы облаков в метрах; квадратными скобками обозначены формы облаков: Ci - перистые, Cs - перисто-слоистые, Cc - перисто-кучевые, Ac - высококучевые, As - высокослоистые, Sc - слоисто-кучевые, Ns - слоисто-дождевые, Cu - кучевые, Cb - кучево-дождевые. Подробнее классификацию облаков см. в Атласе облаков (PDF).
T - Температура воздуха - температура, измеренная на высоте 2 м над землей.
Td - Температура точки росы - температура, при понижении до которой содержащийся в воздухе водяной пар достигнет насыщения.
f - Относительная влажность воздуха - влажноcть воздуха, измеренная на высоте 2 м над землей.
Te - Эффективная температура - температура, которую ощущает одетый по сезону человек в тени. Характеристика душности погоды. При расчете учитывается влияние влажности воздуха и скорости ветра на теплоощущения человека.
Tes - Эффективная температура на солнце - температура, которую ощущает человек, с поправкой на солнечный нагрев. Характеристика знойности погоды. Зависит от высоты солнца над горизонтом, облачности и скорости ветра. Ночью, в пасмурную погоду, а также при ветре 12 м/с и более поправка равна нулю.
P - Атмосферное давление - приведенное к уровню моря атмосферное давление.
Po - Атмосферное давление - измеренное на уровне метеостанции атмосферное давление.
Tmin - Минимальная температура - минимум температуры воздуха на высоте 2 м над землей.
Tmax - Максимальная температура - максимум температуры воздуха на высоте 2 м над землей.
R - Количество осадков - Количество выпавших осадков за период времени, мм. При наведении курсора мыши на число - период времени, за который выпало указанное количество осадков.
R24 - Количество осадков - Количество выпавших осадков за 24 часа, мм.
S - Снежный покров - Высота снежного покрова, см. При наведении курсора мыши на число - состояние снежного покрова и степень покрытия местности в баллах.